Dewpoint
13 16 18 17 18 15 17 14 12 16 13 13 13 14 15 15 16 17 16 16 16 16 14 14 13 13 11 11 10 9 8 9 10 8 8 8 7 6 7 7 8 9 9 10 11 11 11 11 13
15 18 18 15 18 18 17 13 15 13 11 13 14 14 14 15 15 16 16 16 16 15 15 13 14 12 12 12 11 9 9 11 10 8 7 7 8 6 6 7 7 8 9 10 10 10 10 10 10
17 18 17 18 15 17 18 16 12 11 12 13 13 14 14 15 15 16 16 15 15 15 15 14 14 13 12 12 12 11 11 10 10 8 7 7 7 6 6 7 5 6 9 10 10 10 10 9 10
18 18 17 17 12 13 13 13 8 9 12 12 13 14 14 14 15 15 15 15 15 16 15 15 15 15 14 13 12 11 10 10 10 9 8 7 6 6 7 6 7 8 10 11 11 11 10 7 10
18 16 17 13 6 10 11 8 10 10 11 12 12 13 13 14 14 15 15 15 16 16 14 14 15 14 14 13 12 12 11 10 10 9 8 7 7 7 8 5 8 8 11 11 11 12 10 6 10
15 14 16 3 3 5 6 8 10 9 12 12 12 14 15 14 14 15 15 15 16 16 16 14 14 14 13 12 12 11 11 10 10 9 8 6 7 9 9 6 9 10 11 12 12 12 12 10 10
14 15 10 7 2 4 5 5 7 8 10 11 13 14 15 14 14 15 15 16 16 16 17 15 14 14 12 11 11 10 10 9 9 8 6 7 8 10 7 9 10 10 12 13 11 11 11 11 11
12 12 9 7 3 1 3 4 5 6 11 10 13 13 14 14 15 15 15 16 16 16 17 17 15 13 12 10 10 10 9 8 7 6 6 7 11 11 12 11 12 11 12 12 11 9 10 14 14
6 6 8 7 4 1 2 2 5 8 8 11 12 12 13 15 16 15 16 16 16 16 16 16 17 15 15 11 11 11 10 9 8 7 7 11 13 15 17 16 14 12 11 11 10 9 14 14 14
4 8 8 7 4 2 1 2 4 6 7 8 11 12 13 14 15 15 15 15 17 15 16 16 16 16 15 16 12 11 10 10 11 11 11 15 16 15 16 15 15 13 12 15 14 15 16 15 15
4 8 5 5 4 3 1 2 2 5 7 8 12 13 13 14 15 16 16 15 15 16 15 15 14 15 16 16 13 13 14 15 14 16 16 15 15 15 16 16 10 16 13 13 16 15 16 14 13
1 3 4 3 1 4 1 2 2 4 5 8 11 13 13 13 13 14 15 14 15 15 16 17 15 15 16 15 14 15 16 15 15 15 14 15 15 15 15 16 15 16 15 16 15 15 14 14 14
-3 2 2 -0 0 2 1 2 2 2 5 7 9 12 13 13 12 13 13 13 13 13 16 16 15 15 15 16 15 15 15 14 15 15 16 13 16 16 15 16 15 15 16 15 15 14 14 13 13
-4 -3 -2 -2 -2 0 4 3 2 2 4 7 9 11 12 13 12 12 12 12 13 13 14 15 16 15 17 15 15 15 13 15 14 15 14 15 14 16 15 16 14 13 15 14 14 14 13 13 14
-5 -3 -3 -3 -3 0 2 4 4 3 3 6 9 9 11 12 13 12 12 12 13 13 14 15 16 16 15 16 16 16 16 14 14 13 15 15 14 14 16 15 14 15 14 14 14 15 14 14 12
-6 -4 -1 -2 -2 -1 2 6 2 4 4 5 8 9 9 11 11 13 13 13 13 14 14 15 15 17 16 15 16 15 15 14 14 15 15 15 15 14 15 15 16 15 15 13 15 15 14 13 11
-4 -1 -1 -1 -1 -0 1 8 5 4 5 5 7 8 9 10 10 12 12 13 13 14 14 15 15 15 16 16 17 16 16 15 15 15 16 16 16 16 15 16 16 15 15 14 14 15 14 12 11
-2 -1 -1 -0 1 -1 2 11 9 7 4 5 5 7 9 9 10 11 12 12 13 14 15 15 15 16 16 16 15 17 15 16 15 16 16 16 15 15 16 15 16 15 14 15 14 14 13 11 11
-5 -1 -1 -1 2 1 5 13 13 8 7 4 6 5 7 9 10 10 12 12 13 14 15 15 16 16 17 18 17 17 16 15 15 13 14 16 15 15 14 14 14 15 14 16 15 12 7 12 11
-3 -2 -0 -1 2 3 2 11 10 9 7 5 4 5 6 7 8 10 12 12 13 13 14 15 16 16 16 17 17 16 15 14 15 16 16 13 15 14 14 14 14 16 15 14 14 11 6 11 11
-3 -2 -1 -1 1 1 1 3 7 7 5 5 5 5 5 6 7 10 11 12 13 13 14 15 16 17 17 16 17 16 17 17 16 16 15 15 16 15 17 16 15 15 15 11 12 12 9 12 13
-2 -5 -4 -2 3 6 3 7 9 6 8 6 5 5 5 6 7 8 11 12 13 13 14 15 16 16 17 16 17 16 16 17 16 15 14 13 15 15 16 13 14 16 13 12 11 10 6 9 12
-4 -5 -4 -3 -0 6 7 7 6 7 8 8 7 6 6 6 6 7 11 12 13 13 15 15 16 17 16 16 17 17 17 14 13 12 13 14 15 16 17 16 15 14 6 10 10 10 3 12 11
-8 -5 -4 -4 -1 4 4 6 6 7 7 5 6 6 6 6 7 7 9 11 12 13 15 15 16 18 17 17 17 17 17 15 14 14 15 15 16 16 15 16 14 14 5 9 7 5 3 11 12
-10 -6 1 2 2 3 1 7 8 6 5 4 7 7 7 7 7 7 8 11 12 13 14 16 16 18 17 17 17 16 17 14 15 14 15 16 15 15 15 14 13 13 7 8 6 5 11 7 8
-10 -7 -0 5 4 2 1 3 4 5 4 4 6 8 5 7 7 8 9 10 12 13 14 15 17 17 17 17 17 16 15 13 13 16 14 16 14 14 14 15 14 12 11 6 4 3 6 10 10
-10 -7 -8 -2 -2 1 -0 -1 -2 -1 4 5 2 0 1 6 7 8 9 10 12 13 13 15 17 17 17 17 17 16 15 13 13 16 16 16 14 14 14 14 13 10 9 9 9 6 11 12 12
-12 -10 -7 -5 4 5 1 3 4 3 4 5 5 3 -2 -1 7 8 8 10 12 13 14 15 16 17 18 17 17 17 15 14 12 15 15 15 17 14 14 14 12 9 9 11 11 7 11 9 8
-10 -9 -9 -7 -3 2 5 3 1 6 5 5 3 -1 -3 -2 6 6 8 9 12 13 14 15 16 17 19 19 18 16 16 11 14 15 16 15 15 16 14 13 12 9 9 11 8 7 10 11 11
-10 -8 -9 -5 3 -2 0 1 -4 2 2 -1 -0 -2 -3 -3 -1 4 7 9 10 12 13 14 16 17 18 19 18 16 13 13 12 14 15 15 16 15 15 14 11 10 11 7 5 1 8 11 9
Wind_Speed
14 13 16 5 4 4 5 4 11 14 9 24 17 14 14 12 4 13 21 23 22 19 24 23 22 24 24 23 23 24 24 23 21 20 19 18 17 15 15 13 13 12 12 12 13 14 14 13 12
15 16 16 15 1 4 1 8 10 15 20 33 24 21 10 13 21 25 25 22 21 22 19 21 20 22 22 22 22 23 23 21 19 18 17 16 15 14 12 12 12 11 11 11 12 12 12 11 11
16 20 6 6 8 5 2 7 12 18 20 16 11 13 8 24 27 25 26 25 23 22 17 20 21 21 21 22 21 21 20 19 17 15 12 11 11 11 11 11 11 11 10 11 11 11 11 10 10
15 16 20 12 17 2 8 14 14 15 28 21 24 13 24 24 26 27 29 28 24 18 13 18 20 19 21 21 20 19 18 17 15 13 10 7 7 8 9 10 11 10 10 11 10 11 10 9 9
14 14 5 7 13 17 16 17 22 12 26 28 34 28 30 23 27 29 25 23 20 18 16 19 18 19 21 22 20 17 16 16 14 12 8 5 5 6 6 8 9 8 8 10 10 10 10 9 10
9 11 9 5 10 7 11 14 24 12 33 29 31 25 19 28 29 29 25 22 19 18 17 18 19 20 21 21 19 16 15 14 13 11 8 6 4 4 4 5 5 6 7 8 9 10 10 10 11
7 5 9 14 9 11 7 9 4 18 23 22 28 20 24 28 29 29 23 22 19 19 16 18 19 20 20 20 18 15 13 13 12 11 9 7 3 3 3 4 5 6 7 9 9 10 11 12 14
24 9 16 16 5 12 8 11 9 13 27 26 29 19 24 30 29 23 22 20 21 19 16 16 17 20 20 20 17 14 13 12 12 11 9 4 2 4 4 4 5 6 6 7 9 10 12 14 17
22 8 9 7 8 14 9 14 9 20 19 26 4 31 30 33 26 25 26 20 23 19 20 16 15 13 15 17 16 12 11 11 10 9 7 5 2 3 4 9 10 8 6 7 11 12 12 13 13
5 6 5 21 5 12 12 15 13 12 15 13 21 30 30 31 28 25 23 21 19 21 16 24 18 15 12 12 12 11 9 8 8 5 4 4 5 2 4 9 10 8 7 8 12 11 7 12 11
10 2 15 25 20 14 11 18 12 20 11 18 32 30 30 31 30 27 23 22 21 21 18 24 18 18 15 18 9 6 5 5 5 5 4 2 5 7 7 3 5 4 5 6 7 9 9 10 8
11 19 20 7 8 14 13 19 12 15 17 23 25 28 30 29 30 25 24 23 24 24 22 19 18 18 19 14 9 11 9 5 8 9 7 11 0 6 9 2 6 4 7 5 7 8 9 8 10
17 21 24 7 8 7 12 17 16 8 22 23 24 28 30 28 26 26 24 26 25 23 21 17 16 17 16 16 10 10 12 10 9 9 9 7 4 10 7 3 3 3 2 6 8 7 8 10 9
21 14 13 8 9 10 14 18 16 15 18 23 25 29 29 28 27 26 26 26 26 23 22 18 18 18 17 18 17 14 16 10 12 9 11 11 10 9 12 8 6 6 6 8 4 7 5 7 8
26 19 8 10 13 8 15 16 11 22 17 24 23 27 29 28 27 27 25 24 23 24 23 22 21 20 23 21 22 21 12 12 12 11 9 12 14 12 10 7 8 7 11 11 9 9 10 4 8
22 19 15 18 17 11 15 14 14 25 20 23 25 26 28 29 29 28 27 25 25 23 25 23 20 18 14 19 17 21 16 14 14 12 15 16 15 13 12 4 8 13 5 11 9 11 9 8 7
21 17 21 20 13 15 15 5 5 21 22 24 25 26 27 28 29 29 28 28 27 26 27 27 23 22 20 18 20 16 12 15 15 16 11 17 13 12 8 6 11 4 13 12 7 12 4 8 5
20 20 18 17 18 18 18 12 10 32 22 22 26 27 28 29 31 31 29 29 28 29 28 29 28 24 23 20 14 13 12 16 17 16 16 8 12 15 12 7 11 14 15 6 9 5 12 3 6
23 20 22 15 11 17 18 12 16 39 26 25 27 27 29 29 29 30 30 29 29 29 31 30 31 29 24 22 21 21 22 17 14 12 9 15 17 16 12 11 10 10 7 8 4 12 4 2 4
27 26 23 14 19 20 18 25 28 29 26 28 28 27 28 28 30 31 32 31 32 32 32 33 32 32 33 28 23 17 18 12 14 16 16 16 10 10 10 8 5 6 5 5 9 11 2 2 5
26 25 22 20 18 23 16 15 23 28 27 24 25 29 29 31 32 35 34 34 34 35 36 35 34 32 33 30 25 22 18 18 14 14 14 14 14 13 9 10 9 10 8 6 7 5 2 4 2
26 24 26 24 13 13 15 11 12 18 21 20 27 27 31 33 33 34 37 36 36 36 37 35 35 33 32 28 25 19 21 15 15 13 14 15 13 13 18 13 9 10 9 8 8 4 4 4 2
26 26 25 24 21 19 20 13 12 24 21 25 21 30 30 33 34 35 39 38 36 35 37 38 36 34 32 29 30 22 20 17 16 18 16 21 12 8 8 10 10 14 6 9 9 10 8 6 5
26 23 24 22 19 17 18 15 19 15 19 19 24 30 31 32 34 37 37 38 39 37 37 38 37 37 33 31 29 28 23 22 17 19 20 18 14 14 18 16 15 15 7 10 9 6 6 12 10
29 23 16 18 17 17 20 21 11 20 23 21 4 15 34 33 35 38 39 42 43 42 40 39 40 39 35 35 32 31 28 25 25 20 18 17 15 18 15 17 16 15 9 12 9 6 7 6 9
27 27 17 21 18 19 22 22 17 24 25 16 25 58 39 38 36 38 42 43 44 45 41 40 41 40 38 36 35 30 33 29 30 23 26 21 19 18 20 18 18 17 14 13 11 10 11 5 4
27 26 27 26 22 18 18 18 23 17 18 18 33 30 26 39 38 38 40 44 41 43 44 43 41 41 40 36 37 32 30 34 33 30 27 25 24 21 25 26 22 20 19 14 12 11 9 12 11
30 19 23 20 25 25 20 23 11 19 16 20 12 23 19 18 34 35 38 41 42 42 44 42 42 42 41 37 38 34 34 34 36 32 30 30 24 27 25 27 25 22 18 19 17 13 17 12 10
18 22 24 21 20 17 17 17 15 16 15 19 19 22 22 19 33 32 37 39 40 39 42 44 43 41 41 39 38 38 38 38 36 36 35 36 33 31 33 29 26 23 22 22 20 18 13 12 13
29 29 27 17 21 19 20 16 17 7 10 10 11 22 20 27 26 27 30 38 40 42 41 43 44 43 42 40 40 39 40 39 40 41 40 39 36 37 36 34 31 27 26 25 22 19 23 20 15
Wind_Direction
188 134 144 116 330 275 91 213 58 32 67 102 122 107 83 51 9 112 133 129 123 134 132 136 138 140 136 135 133 132 136 135 128 119 113 103 98 93 91 88 79 70 65 61 55 54 50 54 58
178 158 177 93 201 356 124 99 152 149 119 102 101 122 86 78 109 124 134 137 133 128 126 134 143 146 145 139 137 139 144 138 132 126 116 100 92 86 84 78 68 64 64 58 50 45 50 47 55
177 185 211 194 177 152 169 271 165 124 105 115 112 130 99 113 122 128 132 134 133 133 150 140 147 153 150 146 143 144 146 144 141 140 126 102 88 83 81 74 59 57 59 49 41 35 38 52 45
199 236 254 254 105 188 71 197 121 109 118 110 116 84 109 126 128 134 134 135 136 130 155 146 146 148 157 153 149 150 154 152 153 154 138 109 90 84 85 64 50 55 53 40 38 37 33 45 53
242 246 221 259 98 128 171 88 47 94 81 101 108 113 116 123 132 135 135 137 138 136 153 149 146 145 148 151 154 154 158 163 162 160 149 129 113 93 87 57 43 49 43 40 36 39 38 43 49
353 280 272 118 105 99 114 129 138 112 115 114 111 105 121 131 138 139 138 138 138 138 146 150 149 150 149 153 155 155 157 163 166 167 167 159 131 101 83 53 39 49 39 40 37 38 36 41 46
320 268 310 287 107 103 96 95 63 110 122 126 118 122 140 139 142 139 141 139 135 138 143 147 153 153 154 153 149 150 158 167 173 176 173 172 147 76 55 37 44 47 41 37 34 43 44 49 42
207 249 280 308 57 112 113 92 137 118 116 132 132 136 136 150 147 142 144 146 145 142 143 142 153 154 156 153 154 157 161 162 164 167 174 168 63 27 30 344 14 355 16 34 42 47 62 50 41
247 298 268 135 66 116 167 100 84 108 128 125 182 144 149 148 142 147 150 156 144 153 157 145 147 154 159 167 166 165 157 157 164 172 172 134 50 5 317 345 345 338 12 54 61 65 58 41 31
235 296 39 259 172 133 163 131 116 130 152 131 136 140 148 156 149 151 157 160 161 162 159 150 149 163 147 170 177 174 165 160 157 157 138 124 247 8 299 311 341 355 10 54 70 66 41 37 6
147 206 284 291 122 209 152 130 147 134 177 134 132 146 155 162 156 156 164 168 165 172 165 171 184 161 162 188 201 142 130 164 148 193 229 360 261 237 221 302 332 245 354 23 66 36 30 348 314
206 181 244 308 168 168 164 136 150 152 172 151 148 157 162 167 166 157 168 176 177 170 176 170 180 171 177 192 170 177 200 203 203 253 242 221 244 281 296 342 29 2 5 51 19 29 334 354 345
235 194 234 196 148 212 167 141 134 143 142 150 155 162 169 172 175 165 176 179 175 170 168 183 191 181 182 170 190 174 196 189 221 223 275 294 238 285 287 274 236 274 31 345 30 348 326 327 338
251 240 260 246 214 213 185 144 140 149 149 156 158 169 175 178 180 175 178 178 176 178 185 193 186 184 186 187 187 198 205 210 205 230 250 270 237 246 257 291 319 342 307 321 298 303 313 8 346
264 270 224 253 260 180 233 149 176 151 169 159 166 174 178 183 184 185 185 181 183 180 182 184 190 215 212 193 190 191 191 219 213 206 263 261 275 256 275 288 311 315 311 322 307 310 320 338 353
258 257 254 223 203 182 201 189 172 158 173 169 168 178 181 187 189 189 189 190 189 186 191 193 194 209 220 195 204 206 191 210 210 231 233 254 268 248 256 298 282 262 271 308 312 315 319 356 310
243 244 234 251 178 165 194 139 115 165 173 177 177 180 185 187 193 191 194 194 194 194 196 196 195 205 216 221 209 217 182 227 226 220 233 232 247 251 276 265 287 265 275 304 300 286 341 293 293
233 230 234 215 205 185 178 90 36 270 184 195 183 184 187 191 195 193 196 196 198 199 203 205 197 200 216 228 220 193 209 233 231 226 244 238 268 260 256 251 266 280 291 278 288 303 305 33 345
248 237 231 226 193 207 168 139 159 244 224 197 185 194 188 193 197 197 197 197 198 201 204 211 203 202 200 205 212 202 207 222 231 226 227 236 257 265 259 249 245 275 323 270 285 309 297 13 258
244 256 252 222 190 210 203 167 158 219 207 192 191 192 200 197 195 196 196 200 200 202 208 211 213 206 210 207 217 220 217 219 228 231 226 255 254 267 260 268 234 268 256 313 274 322 171 108 250
235 244 253 256 195 196 209 217 183 195 185 192 195 197 200 199 201 191 196 200 202 203 207 213 216 212 215 213 216 214 213 221 228 228 222 245 242 241 236 241 217 241 208 258 270 333 355 168 300
227 233 252 265 159 214 231 220 236 225 190 193 190 201 199 199 200 199 193 198 204 206 210 213 215 217 218 211 211 213 209 209 210 228 228 244 246 235 221 234 215 208 214 225 269 258 218 142 127
232 230 237 255 263 196 203 230 267 211 192 187 194 198 203 197 200 201 195 198 203 206 208 211 216 216 217 214 202 208 202 209 195 212 230 215 225 192 204 223 206 232 225 217 226 242 183 161 176
229 239 248 244 252 255 213 212 252 217 197 238 192 202 203 197 198 201 199 197 201 206 204 209 209 214 216 214 212 204 209 198 209 215 206 208 221 223 210 216 225 237 212 229 241 235 201 185 192
231 225 234 238 237 249 242 204 211 239 205 219 111 276 198 199 195 195 195 195 196 200 204 202 207 211 216 210 215 209 204 202 204 203 210 209 213 224 220 220 225 239 227 220 217 219 197 219 199
215 228 227 228 231 241 235 248 223 178 197 200 197 208 195 195 195 193 196 196 197 198 203 201 204 212 215 212 216 209 210 204 206 203 210 213 209 206 229 234 239 233 232 221 216 209 199 207 226
214 224 226 240 240 247 246 232 233 240 185 169 230 208 205 195 189 194 197 198 198 198 199 203 202 210 213 213 211 213 208 211 207 211 201 213 216 213 224 234 240 223 225 224 218 205 196 194 224
228 215 221 234 239 241 240 251 237 221 192 184 217 271 212 205 183 191 195 197 197 199 199 202 204 209 209 212 209 211 211 211 214 212 213 218 216 208 225 236 237 224 220 214 219 209 200 214 230
214 228 234 230 238 246 245 249 238 217 201 200 190 212 227 220 182 191 192 194 196 197 201 200 204 205 203 206 205 211 217 219 214 210 219 222 218 225 228 233 235 225 218 216 222 211 207 222 235
220 215 227 238 229 230 251 248 250 276 165 177 216 212 218 231 201 184 192 190 191 196 200 202 203 203 204 203 203 213 220 221 222 218 218 222 221 226 232 235 236 231 219 220 224 212 203 215 224
Height
1497 1502 1506 1509 1514 1502 1499 1491 1479 1494 1482 1485 1493 1497 1505 1506 1508 1526 1529 1532 1536 1537 1537 1540 1542 1546 1549 1552 1554 1556 1559 1561 1563 1565 1567 1568 1569 1569 1570 1571 1572 1572 1572 1572 1571 1571 1570 1569 1568
1497 1503 1505 1509 1519 1516 1502 1485 1489 1483 1479 1487 1494 1502 1506 1511 1514 1521 1529 1534 1538 1539 1541 1542 1545 1548 1550 1554 1556 1558 1561 1564 1566 1567 1568 1569 1570 1571 1572 1573 1574 1574 1573 1573 1572 1572 1571 1571 1570
1497 1500 1501 1490 1492 1511 1512 1492 1476 1477 1481 1490 1495 1503 1509 1514 1521 1524 1531 1535 1539 1542 1543 1544 1547 1549 1552 1555 1558 1561 1563 1565 1567 1569 1569 1571 1572 1573 1574 1575 1575 1575 1574 1574 1573 1573 1573 1572 1571
1491 1497 1494 1490 1480 1488 1480 1479 1472 1474 1479 1485 1491 1504 1510 1518 1521 1528 1533 1537 1540 1544 1544 1546 1548 1550 1553 1557 1560 1562 1565 1567 1569 1570 1570 1572 1573 1574 1574 1575 1575 1575 1575 1575 1574 1574 1573 1573 1572
1497 1490 1488 1477 1465 1469 1472 1470 1473 1473 1482 1488 1495 1505 1513 1521 1526 1531 1534 1539 1541 1544 1545 1548 1550 1552 1555 1558 1561 1563 1566 1568 1569 1571 1572 1573 1574 1575 1575 1575 1576 1575 1575 1575 1575 1575 1574 1574 1573
1476 1490 1488 1468 1468 1460 1462 1468 1474 1476 1485 1494 1500 1510 1519 1524 1528 1531 1537 1540 1543 1545 1546 1548 1551 1554 1557 1559 1562 1565 1566 1568 1570 1571 1573 1574 1574 1574 1575 1575 1575 1575 1575 1575 1575 1575 1575 1575 1574
1506 1492 1467 1464 1464 1463 1462 1463 1468 1472 1482 1492 1501 1514 1523 1526 1529 1533 1537 1542 1544 1546 1547 1549 1551 1555 1558 1561 1563 1565 1567 1569 1570 1572 1573 1574 1574 1574 1575 1575 1576 1576 1575 1575 1575 1576 1576 1576 1575
1484 1482 1477 1466 1461 1469 1465 1466 1471 1474 1485 1492 1500 1510 1520 1526 1529 1535 1539 1543 1545 1548 1549 1551 1553 1555 1559 1561 1564 1566 1568 1569 1570 1572 1573 1575 1575 1576 1577 1578 1578 1578 1577 1576 1576 1577 1577 1577 1577
1476 1477 1475 1470 1462 1464 1467 1470 1474 1479 1484 1493 1497 1504 1517 1524 1529 1535 1539 1543 1545 1549 1551 1552 1555 1557 1560 1562 1564 1566 1567 1569 1570 1572 1573 1574 1572 1578 1581 1583 1583 1582 1579 1578 1577 1578 1579 1578 1578
1472 1482 1478 1475 1461 1459 1464 1470 1477 1483 1488 1490 1497 1507 1515 1523 1528 1534 1538 1542 1544 1548 1550 1553 1556 1558 1560 1563 1565 1566 1568 1570 1571 1572 1573 1574 1575 1582 1584 1584 1585 1585 1584 1582 1578 1578 1579 1579 1579
1469 1482 1470 1457 1461 1464 1465 1469 1476 1482 1488 1492 1501 1509 1515 1521 1525 1532 1538 1541 1544 1546 1550 1552 1555 1558 1561 1562 1565 1566 1569 1570 1572 1573 1573 1575 1580 1579 1578 1581 1581 1582 1582 1579 1578 1578 1579 1581 1580
1463 1465 1462 1462 1457 1462 1460 1467 1474 1478 1483 1491 1499 1508 1514 1518 1523 1528 1534 1538 1541 1544 1548 1550 1553 1557 1560 1563 1565 1567 1569 1570 1572 1571 1572 1574 1579 1577 1577 1576 1585 1582 1581 1579 1579 1578 1580 1580 1580
1457 1458 1457 1452 1456 1458 1460 1464 1471 1477 1482 1490 1499 1507 1513 1517 1521 1525 1531 1534 1539 1543 1545 1548 1552 1556 1558 1562 1565 1567 1569 1571 1571 1571 1571 1573 1577 1576 1578 1583 1585 1584 1582 1580 1579 1580 1580 1581 1580
1451 1450 1449 1449 1451 1456 1458 1461 1469 1477 1483 1490 1498 1505 1511 1515 1519 1523 1527 1531 1536 1541 1545 1546 1549 1553 1556 1560 1562 1565 1567 1569 1571 1572 1571 1573 1574 1575 1576 1577 1577 1578 1578 1577 1578 1579 1579 1579 1579
1452 1449 1446 1449 1451 1451 1456 1461 1467 1474 1482 1488 1496 1503 1508 1512 1517 1520 1525 1529 1534 1538 1543 1545 1548 1550 1554 1556 1559 1562 1565 1568 1569 1571 1571 1570 1572 1572 1572 1572 1573 1575 1576 1576 1577 1578 1578 1577 1578
1452 1448 1457 1442 1445 1449 1458 1467 1464 1472 1480 1486 1493 1500 1504 1509 1513 1518 1523 1527 1532 1535 1539 1543 1547 1547 1550 1554 1558 1560 1562 1566 1568 1570 1570 1570 1570 1571 1571 1572 1573 1573 1575 1576 1576 1577 1577 1577 1577
1452 1460 1454 1442 1441 1446 1457 1471 1466 1470 1477 1483 1488 1495 1500 1505 1510 1514 1519 1524 1528 1532 1535 1540 1545 1547 1548 1551 1555 1557 1560 1564 1565 1567 1568 1569 1569 1570 1571 1572 1573 1573 1574 1575 1575 1575 1575 1575 1575
1461 1453 1443 1442 1440 1441 1453 1480 1474 1474 1472 1478 1483 1489 1495 1500 1504 1509 1515 1520 1525 1528 1532 1536 1540 1544 1546 1548 1552 1554 1559 1560 1563 1564 1565 1565 1567 1569 1568 1571 1572 1573 1572 1573 1573 1573 1573 1573 1573
1442 1438 1438 1427 1433 1441 1446 1475 1479 1470 1468 1471 1476 1482 1488 1493 1499 1505 1510 1515 1521 1524 1528 1531 1535 1539 1543 1545 1547 1551 1554 1557 1560 1561 1563 1564 1565 1566 1567 1568 1569 1570 1570 1571 1570 1571 1570 1571 1572
1442 1439 1432 1420 1424 1438 1438 1460 1455 1461 1457 1459 1467 1475 1480 1486 1492 1499 1504 1511 1514 1519 1522 1526 1529 1534 1539 1542 1545 1548 1551 1553 1555 1557 1558 1561 1562 1563 1564 1565 1567 1567 1569 1569 1568 1568 1568 1570 1571
1439 1438 1431 1428 1420 1425 1433 1443 1441 1441 1446 1453 1457 1464 1472 1478 1484 1490 1498 1504 1509 1512 1515 1519 1524 1530 1533 1538 1542 1546 1548 1551 1553 1555 1556 1557 1559 1561 1562 1563 1565 1566 1567 1566 1566 1566 1567 1568 1570
1441 1426 1425 1423 1431 1454 1433 1468 1447 1446 1441 1445 1447 1455 1461 1469 1476 1483 1488 1495 1502 1506 1510 1515 1519 1524 1528 1534 1537 1541 1543 1547 1550 1552 1554 1555 1556 1557 1559 1560 1561 1562 1563 1564 1564 1564 1565 1566 1568
1427 1420 1422 1422 1426 1438 1436 1452 1436 1431 1436 1434 1439 1444 1450 1458 1467 1475 1480 1487 1495 1501 1504 1508 1513 1518 1523 1528 1533 1537 1541 1544 1547 1549 1551 1551 1552 1554 1556 1557 1558 1559 1561 1561 1562 1561 1563 1564 1566
1418 1422 1421 1419 1423 1443 1426 1442 1437 1428 1426 1431 1429 1437 1443 1448 1457 1465 1473 1480 1486 1494 1498 1502 1508 1513 1518 1523 1528 1532 1536 1540 1543 1547 1546 1547 1548 1551 1553 1555 1555 1556 1558 1558 1560 1561 1562 1562 1563
1416 1427 1448 1451 1442 1441 1413 1431 1425 1409 1416 1415 1429 1434 1434 1439 1446 1455 1463 1469 1476 1484 1490 1495 1500 1505 1512 1518 1522 1527 1531 1536 1539 1542 1542 1543 1545 1547 1549 1550 1552 1553 1555 1555 1556 1557 1559 1561 1563
1413 1416 1431 1461 1447 1436 1407 1421 1408 1399 1405 1413 1422 1426 1421 1429 1436 1444 1452 1459 1467 1474 1484 1489 1492 1498 1505 1511 1516 1522 1526 1531 1534 1535 1537 1539 1542 1545 1545 1547 1548 1548 1550 1553 1553 1554 1556 1558 1560
1403 1415 1403 1422 1414 1424 1407 1396 1388 1385 1394 1401 1414 1409 1413 1417 1426 1436 1444 1452 1460 1468 1476 1482 1487 1492 1498 1505 1511 1515 1520 1524 1527 1529 1533 1535 1538 1541 1541 1542 1543 1546 1548 1549 1551 1552 1554 1556 1558
1388 1394 1419 1412 1440 1440 1415 1409 1400 1389 1389 1396 1401 1405 1407 1413 1419 1427 1436 1444 1452 1461 1469 1477 1483 1486 1492 1500 1505 1509 1513 1517 1519 1524 1527 1530 1533 1536 1535 1538 1540 1541 1544 1546 1547 1549 1550 1551 1554
1397 1399 1396 1398 1404 1419 1428 1405 1372 1378 1379 1385 1391 1397 1402 1406 1413 1420 1427 1437 1446 1456 1463 1469 1476 1482 1487 1493 1499 1503 1506 1509 1513 1517 1520 1523 1528 1529 1531 1534 1535 1538 1539 1541 1543 1545 1546 1546 1549
1375 1382 1390 1406 1411 1395 1401 1394 1363 1366 1367 1378 1385 1392 1395 1399 1406 1412 1422 1429 1437 1446 1455 1462 1469 1476 1480 1487 1492 1495 1497 1502 1506 1509 1512 1517 1520 1523 1527 1528 1530 1532 1535 1536 1537 1539 1540 1540 1542